{"data":{"norad_id":57513,"epoch":"2026-05-25T03:51:44.506656Z","epoch_age_seconds":60998,"freshness":"FRESH","line1":"1 57513U 23113U   26145.16093179  .00000321  00000+0  21177-4 0  9992","line2":"2 57513  43.0035 303.9060 0001400 280.6716  79.3978 15.27574216155211","mean_motion":15.27574216,"eccentricity":0.00014,"inclination_deg":43.0035,"raan_deg":303.906,"arg_perigee_deg":280.6716,"mean_anomaly_deg":79.3978,"bstar":2.1177e-5,"rev_number":15521,"period_min":94.267105644836,"perigee_km":482.10584699292,"apogee_km":484.02698394925,"semimajor_km":6861.2034154711,"source":"CELESTRAK","updated_at":"2026-05-25T13:38:18.330694Z"}}